Home   Weather   Kolkata   Past weeks

Flag for India Past Weather in Kolkata, West Bengal, India — Yesterday and Last 2 Weeks

Now
68 °F

Fog.


Feels Like: 68 °F
Forecast: 60 / 84 °F
Wind: 5 mph from Northeast

Location: Calcutta / Dum Dum

Current Time: Dec 6, 2016 at 9:27:26 pm

Latest Report: Dec 6, 2016 at 9:00 pm


Visibility: 1 mi

Pressure: 29.98 "Hg

Humidity: 83%

Dew Point: 63 °F

Location of KolkataLocation

Past Weather in Kolkata — Graph

°F

Kolkata Temperature Yesterday

Maximum temperature yesterday: 82 °F (at 1:30 pm)
Minimum temperature yesterday: 63 °F (at 5:00 am)
Average temperature yesterday: 71 °F

High & Low Weather Summary for the Past Weeks

 TemperatureHumidityPressure
High86 °F (Dec 2, 2:00 pm)100% (Nov 24, 6:30 am)30.09 "Hg (Nov 24, 6:30 am)
Low63 °F (Dec 5, 5:00 am)37% (Nov 25, 2:30 pm)29.74 "Hg (Nov 25, 4:00 pm)
Average74 °F74%29.91 "Hg
* Reported Nov 21 7:30 pm — Dec 6 8:00 pm, Kolkata, Weather by CustomWeather, © 2016

Note: Actual official high and low records may vary slightly from our data, if they occured in-between our weather recording intervals... More about our weather records

Advertising

Kolkata Weather History for the Previous 24 Hours

Scroll right to see more
 ConditionsComfort  
Time TempWeatherWind HumidityBarometerVisibility
8:00 pm
Tue, Dec 6
72 °FHaze.5 mph69%29.95 "Hg1 mi
7:30 pm72 °FHaze.5 mph69%29.95 "Hg1 mi
7:00 pm73 °FClear.5 mph69%29.95 "Hg1 mi
6:30 pm73 °FClear.No wind69%29.92 "Hg1 mi
6:00 pm75 °FClear.No wind65%29.92 "Hg1 mi
5:30 pm77 °FClear.No wind61%29.92 "Hg2 mi
5:00 pm79 °FClear.No wind58%29.89 "Hg2 mi
4:30 pm81 °FHaze.5 mph54%29.89 "Hg2 mi
4:00 pm81 °FHaze.6 mph51%29.89 "Hg2 mi
3:30 pm82 °FHaze.8 mph48%29.92 "Hg2 mi
3:00 pm82 °FHaze.7 mph48%29.92 "Hg2 mi
2:30 pm82 °FHaze.7 mph48%29.92 "Hg2 mi
2:00 pm84 °FHaze.7 mph43%29.92 "Hg2 mi
1:30 pm82 °FHaze.6 mph48%29.92 "Hg2 mi
1:00 pm82 °FClear.6 mph48%29.95 "Hg2 mi
12:30 pm81 °FClear.6 mph51%29.95 "Hg2 mi
12:00 pm79 °FClear.6 mph54%29.98 "Hg2 mi
11:30 am77 °FClear.6 mph61%29.98 "Hg2 mi
11:00 am75 °FClear.6 mph65%30.01 "Hg2 mi
10:30 am73 °FClear.7 mph69%30.01 "Hg1 mi
10:00 am72 °FClear.7 mph73%30.04 "Hg1 mi
9:30 am70 °FFog.9 mph78%30.04 "Hg1 mi
9:00 am68 °FFog.9 mph83%30.04 "Hg1 mi
8:30 am66 °FFog.9 mph88%30.04 "Hg1 mi
8:00 am66 °FFog.8 mph88%30.04 "Hg1 mi
7:30 am64 °FFog.9 mph94%30.04 "Hg1 mi
7:00 am63 °FFog.9 mph94%30.01 "Hg1 mi
6:30 am63 °FFog.8 mph94%30.01 "Hg1 mi
6:00 am63 °FFog.7 mph94%30.01 "Hg1 mi
5:30 am63 °FFog.8 mph94%29.98 "Hg1 mi
5:00 am63 °FFog.8 mph94%29.98 "Hg1 mi
4:30 am64 °FFog.7 mph94%29.98 "Hg1 mi
4:00 am64 °FFog.7 mph94%29.98 "Hg1 mi
3:30 am64 °FFog.6 mph94%29.98 "Hg1 mi
3:00 am64 °FFog.7 mph94%29.98 "Hg1 mi
2:30 am64 °FFog.6 mph94%29.98 "Hg1 mi
2:00 am64 °FFog.6 mph94%29.98 "Hg1 mi
1:30 am66 °FFog.6 mph94%29.98 "Hg1 mi
1:00 am66 °FFog.7 mph94%29.98 "Hg1 mi
12:30 am68 °FFog.8 mph88%29.98 "Hg1 mi
12:00 am68 °FFog.8 mph88%29.98 "Hg1 mi
11:30 pm
Mon, Dec 5
68 °FFog.7 mph88%29.98 "Hg1 mi
11:00 pm68 °FFog.7 mph88%29.98 "Hg1 mi
10:30 pm68 °FFog.7 mph88%29.98 "Hg1 mi
10:00 pm68 °FFog.6 mph88%29.98 "Hg1 mi
9:30 pm70 °FFog.6 mph83%29.98 "Hg1 mi
9:00 pm70 °FFog.6 mph83%29.98 "Hg1 mi
Weather by CustomWeather, © 2016

See weather overviewHow to use our weather pages